CPA488 VHHH-RCTP

Flight info

Callsign CPA488
Flight time 1h 14m
Altitude 39000
Route DALOL V631 ENVAR M750 EXTRA/N0418F290 M750 TONGA TONGA1A
Aircraft A333/H-SDE3GHIJ2J3J5M1RVWXY/LB2D1

Departure

Time 2026-05-07 19:39
Airport Hong Kong International Airport (VHHH)

Arrival

Time 2026-05-07 20:53
Airport Taiwan Taoyuan International Airport (RCTP)
Time Latitude Longitude Altitude Speed Heading
2026-05-07 19:06 22.31294 113.92605 36 ft 0 kts 26°
2026-05-07 19:26 22.31294 113.92604 36 ft 1 kts 26°
2026-05-07 19:26 22.31272 113.92593 35 ft 2 kts 26°
2026-05-07 19:27 22.31254 113.92582 32 ft 4 kts 54°
2026-05-07 19:27 22.31242 113.92558 33 ft 2 kts 61°
2026-05-07 19:27 22.31230 113.92538 33 ft 4 kts 42°
2026-05-07 19:27 22.31209 113.92523 34 ft 2 kts 26°
2026-05-07 19:28 22.31188 113.92512 34 ft 3 kts 26°
2026-05-07 19:28 22.31169 113.92502 33 ft 4 kts 26°
2026-05-07 19:28 22.31156 113.92495 34 ft 0 kts 26°
2026-05-07 19:31 22.31169 113.92502 33 ft 4 kts 26°
2026-05-07 19:31 22.31229 113.92504 34 ft 11 kts 333°
2026-05-07 19:32 22.31274 113.92433 36 ft 12 kts 296°
2026-05-07 19:32 22.31316 113.92343 36 ft 14 kts 297°
2026-05-07 19:32 22.31363 113.92241 36 ft 16 kts 297°
2026-05-07 19:32 22.31410 113.92136 36 ft 11 kts 296°
2026-05-07 19:33 22.31466 113.92080 36 ft 12 kts 337°
2026-05-07 19:33 22.31527 113.92027 36 ft 11 kts 280°
2026-05-07 19:33 22.31505 113.91941 36 ft 13 kts 250°
2026-05-07 19:33 22.31473 113.91846 36 ft 15 kts 250°
2026-05-07 19:34 22.31437 113.91735 36 ft 16 kts 251°
2026-05-07 19:34 22.31398 113.91614 36 ft 18 kts 251°
2026-05-07 19:34 22.31354 113.91480 36 ft 20 kts 251°
2026-05-07 19:34 22.31308 113.91334 36 ft 21 kts 251°
2026-05-07 19:35 22.31258 113.91179 36 ft 23 kts 251°
2026-05-07 19:35 22.31205 113.91013 36 ft 24 kts 250°
2026-05-07 19:35 22.31149 113.90840 36 ft 25 kts 250°
2026-05-07 19:35 22.31090 113.90657 36 ft 26 kts 251°
2026-05-07 19:36 22.31030 113.90465 36 ft 27 kts 251°
2026-05-07 19:36 22.30974 113.90294 59 ft 16 kts 250°
2026-05-07 19:36 22.30935 113.90176 36 ft 17 kts 250°
2026-05-07 19:36 22.30893 113.90046 36 ft 19 kts 250°
2026-05-07 19:37 22.30851 113.89918 36 ft 13 kts 251°
2026-05-07 19:37 22.30868 113.89833 36 ft 11 kts 322°
2026-05-07 19:37 22.30930 113.89814 36 ft 10 kts 344°
2026-05-07 19:37 22.31004 113.89789 34 ft 14 kts 342°
2026-05-07 19:38 22.31077 113.89779 34 ft 6 kts 26°
2026-05-07 19:38 22.31093 113.89811 34 ft 5 kts 67°
2026-05-07 19:38 22.31134 113.89931 34 ft 39 kts 70°
2026-05-07 19:38 22.31297 113.90442 35 ft 103 kts 70°
2026-05-07 19:39 22.31600 113.91374 36 ft 158 kts 70°
2026-05-07 19:39 22.31991 113.92595 466 ft 176 kts 71°
2026-05-07 19:39 22.32388 113.93835 1310 ft 177 kts 71°
2026-05-07 19:39 22.32795 113.95117 2046 ft 180 kts 72°
2026-05-07 19:40 22.33201 113.96402 2611 ft 181 kts 71°
2026-05-07 19:40 22.33523 113.97701 3157 ft 182 kts 80°
2026-05-07 19:40 22.33742 113.99088 3602 ft 193 kts 81°
2026-05-07 19:40 22.33974 114.00562 4040 ft 206 kts 81°
2026-05-07 19:41 22.34227 114.02156 4470 ft 223 kts 81°
2026-05-07 19:41 22.34342 114.03856 5071 ft 230 kts 94°
2026-05-07 19:41 22.33977 114.05547 5720 ft 235 kts 115°
2026-05-07 19:41 22.33060 114.07007 6372 ft 237 kts 136°
2026-05-07 19:42 22.31711 114.08083 6840 ft 248 kts 154°
2026-05-07 19:42 22.30049 114.08687 7307 ft 256 kts 172°
2026-05-07 19:42 22.28252 114.08812 7829 ft 263 kts 181°
2026-05-07 19:42 22.26366 114.08781 8179 ft 278 kts 183°
2026-05-07 19:43 22.24407 114.08731 8677 ft 285 kts 183°
2026-05-07 19:43 22.22401 114.08691 9264 ft 290 kts 182°
2026-05-07 19:43 22.20375 114.08660 9894 ft 293 kts 182°
2026-05-07 19:43 22.18301 114.08729 10262 ft 306 kts 173°
2026-05-07 19:44 22.16256 114.09542 10482 ft 326 kts 147°
2026-05-07 19:44 22.14664 114.11361 10682 ft 344 kts 123°
2026-05-07 19:44 22.13513 114.13667 11022 ft 353 kts 117°
2026-05-07 19:44 22.12438 114.16044 11469 ft 358 kts 117°
2026-05-07 19:45 22.11332 114.18471 11936 ft 362 kts 117°
2026-05-07 19:45 22.10199 114.20916 12448 ft 365 kts 118°
2026-05-07 19:45 22.09046 114.23374 12946 ft 369 kts 118°
2026-05-07 19:45 22.07728 114.25744 13439 ft 370 kts 130°
2026-05-07 19:46 22.05877 114.27675 13910 ft 371 kts 143°
2026-05-07 19:46 22.03811 114.29352 14363 ft 373 kts 146°
2026-05-07 19:46 22.01702 114.30995 14804 ft 376 kts 146°
2026-05-07 19:46 21.99577 114.32649 15242 ft 379 kts 146°
2026-05-07 19:47 21.97434 114.34324 15682 ft 381 kts 146°
2026-05-07 19:47 21.95275 114.36018 16122 ft 384 kts 146°
2026-05-07 19:47 21.93111 114.37717 16546 ft 387 kts 146°
2026-05-07 19:47 21.90924 114.39437 16982 ft 390 kts 146°
2026-05-07 19:48 21.88752 114.41144 17394 ft 393 kts 146°
2026-05-07 19:48 21.86610 114.42988 17806 ft 397 kts 138°
2026-05-07 19:48 21.84864 114.45325 18194 ft 403 kts 121°
2026-05-07 19:48 21.83764 114.48112 18549 ft 407 kts 108°
2026-05-07 19:49 21.82974 114.51047 18885 ft 410 kts 105°
2026-05-07 19:49 21.82227 114.54027 19234 ft 412 kts 105°
2026-05-07 19:49 21.81477 114.57012 19567 ft 415 kts 105°
2026-05-07 19:49 21.80723 114.59981 19892 ft 417 kts 105°
2026-05-07 19:50 21.79951 114.62993 20220 ft 419 kts 105°
2026-05-07 19:50 21.79170 114.66026 20576 ft 420 kts 105°
2026-05-07 19:50 21.78384 114.69066 20897 ft 423 kts 105°
2026-05-07 19:50 21.77590 114.72134 21220 ft 425 kts 105°
2026-05-07 19:51 21.76793 114.75205 21522 ft 427 kts 105°
2026-05-07 19:51 21.75991 114.78293 21842 ft 429 kts 105°
2026-05-07 19:51 21.75197 114.81349 22148 ft 431 kts 105°
2026-05-07 19:51 21.74538 114.84497 22445 ft 433 kts 97°
2026-05-07 19:52 21.74275 114.87725 22763 ft 434 kts 91°
2026-05-07 19:52 21.74193 114.90973 23048 ft 435 kts 89°
2026-05-07 19:52 21.74203 114.94231 23343 ft 437 kts 88°
2026-05-07 19:52 21.74248 114.97511 23619 ft 439 kts 87°
2026-05-07 19:53 21.74294 115.00793 23890 ft 442 kts 88°
2026-05-07 19:53 21.74328 115.04122 24145 ft 444 kts 88°
2026-05-07 19:53 21.74348 115.07454 24433 ft 446 kts 88°
2026-05-07 19:53 21.74355 115.10794 24719 ft 448 kts 88°
2026-05-07 19:54 21.74355 115.14148 24988 ft 450 kts 88°
2026-05-07 19:54 21.74350 115.17516 25262 ft 451 kts 88°
2026-05-07 19:54 21.74343 115.20904 25530 ft 453 kts 89°
2026-05-07 19:54 21.74336 115.24303 25806 ft 455 kts 89°
2026-05-07 19:55 21.74328 115.27714 26078 ft 457 kts 89°
2026-05-07 19:55 21.74320 115.31144 26352 ft 459 kts 89°
2026-05-07 19:55 21.74312 115.34582 26627 ft 461 kts 89°
2026-05-07 19:55 21.74303 115.38034 26910 ft 463 kts 89°
2026-05-07 19:56 21.74294 115.41511 27184 ft 465 kts 89°
2026-05-07 19:56 21.74284 115.44956 27453 ft 466 kts 89°
2026-05-07 19:56 21.74273 115.48453 27725 ft 468 kts 89°
2026-05-07 19:56 21.74262 115.51971 28000 ft 470 kts 89°
2026-05-07 19:57 21.74249 115.55507 28263 ft 472 kts 89°
2026-05-07 19:57 21.74236 115.59049 28544 ft 474 kts 89°
2026-05-07 19:57 21.74223 115.62611 28816 ft 476 kts 89°
2026-05-07 19:57 21.74210 115.66180 29098 ft 478 kts 89°
2026-05-07 19:58 21.74196 115.69758 29372 ft 479 kts 89°
2026-05-07 19:58 21.74181 115.73299 29607 ft 481 kts 89°
2026-05-07 19:58 21.74165 115.76911 29858 ft 483 kts 89°
2026-05-07 19:58 21.74149 115.80540 30084 ft 485 kts 89°
2026-05-07 19:59 21.74131 115.84172 30288 ft 487 kts 89°
2026-05-07 19:59 21.74113 115.87819 30507 ft 488 kts 89°
2026-05-07 19:59 21.74094 115.91480 30713 ft 490 kts 89°
2026-05-07 19:59 21.74074 115.95152 30926 ft 491 kts 89°
2026-05-07 20:00 21.74053 115.98833 31204 ft 491 kts 89°
2026-05-07 20:00 21.74031 116.02516 31435 ft 493 kts 89°
2026-05-07 20:00 21.74009 116.06209 31646 ft 495 kts 89°
2026-05-07 20:00 21.73986 116.09916 31884 ft 497 kts 89°
2026-05-07 20:01 21.73961 116.13640 32139 ft 499 kts 89°
2026-05-07 20:01 21.73936 116.17319 32483 ft 498 kts 89°
2026-05-07 20:01 21.73910 116.21045 32853 ft 497 kts 89°
2026-05-07 20:01 21.73883 116.24759 33225 ft 496 kts 89°
2026-05-07 20:02 21.73855 116.28476 33602 ft 496 kts 89°
2026-05-07 20:02 21.73827 116.32184 33962 ft 496 kts 89°
2026-05-07 20:02 21.73798 116.35888 34282 ft 495 kts 89°
2026-05-07 20:02 21.73768 116.39586 34603 ft 495 kts 89°
2026-05-07 20:03 21.73737 116.43298 34929 ft 495 kts 89°
2026-05-07 20:03 21.73705 116.46983 35258 ft 494 kts 89°
2026-05-07 20:03 21.73673 116.50694 35582 ft 494 kts 89°
2026-05-07 20:03 21.73639 116.54383 35902 ft 493 kts 88°
2026-05-07 20:04 21.73605 116.58080 36218 ft 493 kts 88°
2026-05-07 20:04 21.73570 116.61759 36584 ft 491 kts 88°
2026-05-07 20:04 21.73534 116.65435 36882 ft 491 kts 88°
2026-05-07 20:04 21.73498 116.69058 37159 ft 491 kts 88°
2026-05-07 20:05 21.73461 116.72741 37435 ft 491 kts 88°
2026-05-07 20:05 21.73586 116.76404 37728 ft 488 kts 81°
2026-05-07 20:05 21.74185 116.79981 37988 ft 485 kts 71°
2026-05-07 20:05 21.75196 116.83436 38138 ft 485 kts 67°
2026-05-07 20:06 21.76345 116.86852 38392 ft 484 kts 65°
2026-05-07 20:06 21.77554 116.90220 38689 ft 482 kts 65°
2026-05-07 20:06 21.78789 116.93572 38882 ft 482 kts 64°
2026-05-07 20:06 21.80033 116.96926 38921 ft 482 kts 64°
2026-05-07 20:07 21.82083 117.02495 38922 ft 480 kts 65°
2026-05-07 20:07 21.84913 117.10287 38922 ft 480 kts 65°
2026-05-07 20:08 21.87329 117.16994 38919 ft 480 kts 65°
2026-05-07 20:08 21.89333 117.22569 38919 ft 480 kts 65°
2026-05-07 20:09 21.91736 117.29261 38922 ft 479 kts 65°
2026-05-07 20:10 21.95341 117.39312 38918 ft 480 kts 65°
2026-05-07 20:10 21.97748 117.46033 38922 ft 481 kts 65°
2026-05-07 20:11 22.00636 117.52491 38922 ft 475 kts 56°
2026-05-07 20:11 22.03979 117.58561 38921 ft 474 kts 54°
2026-05-07 20:12 22.07438 117.64622 38923 ft 474 kts 54°
2026-05-07 20:12 22.10899 117.70680 38925 ft 474 kts 54°
2026-05-07 20:13 22.14352 117.76758 38923 ft 474 kts 54°
2026-05-07 20:13 22.17797 117.82844 38922 ft 475 kts 54°
2026-05-07 20:14 22.21217 117.88898 38927 ft 475 kts 54°
2026-05-07 20:14 22.24662 117.95001 38930 ft 475 kts 54°
2026-05-07 20:15 22.28111 118.01101 38930 ft 475 kts 53°
2026-05-07 20:15 22.31620 118.07148 38925 ft 474 kts 53°
2026-05-07 20:16 22.35125 118.13131 38927 ft 474 kts 53°
2026-05-07 20:16 22.38672 118.19199 38928 ft 476 kts 53°
2026-05-07 20:17 22.42167 118.25253 38927 ft 479 kts 53°
2026-05-07 20:17 22.45652 118.31409 38925 ft 479 kts 54°
2026-05-07 20:18 22.49130 118.37574 38926 ft 479 kts 53°
2026-05-07 20:18 22.52598 118.43718 38927 ft 479 kts 53°
2026-05-07 20:19 22.56070 118.49867 38929 ft 478 kts 53°
2026-05-07 20:19 22.59555 118.55992 38927 ft 478 kts 53°
2026-05-07 20:20 22.63027 118.62083 38926 ft 478 kts 53°
2026-05-07 20:20 22.66517 118.68215 38929 ft 478 kts 53°
2026-05-07 20:21 22.70011 118.74361 38928 ft 478 kts 53°
2026-05-07 20:21 22.73498 118.80504 38927 ft 478 kts 53°
2026-05-07 20:22 22.76964 118.86616 38928 ft 478 kts 53°
2026-05-07 20:22 22.80448 118.92769 38932 ft 479 kts 53°
2026-05-07 20:23 22.83935 118.98933 38929 ft 480 kts 53°
2026-05-07 20:23 22.87430 119.05119 38927 ft 480 kts 53°
2026-05-07 20:24 22.90893 119.11257 38932 ft 479 kts 53°
2026-05-07 20:24 22.94374 119.17432 38930 ft 479 kts 53°
2026-05-07 20:25 22.97849 119.23605 38929 ft 479 kts 53°
2026-05-07 20:25 23.01323 119.29784 38930 ft 479 kts 53°
2026-05-07 20:26 23.04800 119.35974 38930 ft 480 kts 54°
2026-05-07 20:26 23.08276 119.42172 38930 ft 480 kts 54°
2026-05-07 20:27 23.11750 119.48375 38927 ft 480 kts 54°
2026-05-07 20:27 23.15214 119.54549 38930 ft 480 kts 52°
2026-05-07 20:28 23.19505 119.59913 38929 ft 463 kts 33°
2026-05-07 20:28 23.24882 119.63639 38935 ft 457 kts 24°
2026-05-07 20:29 23.30418 119.67096 38935 ft 460 kts 24°
2026-05-07 20:29 23.35928 119.70554 38936 ft 460 kts 24°
2026-05-07 20:30 23.41475 119.74048 38936 ft 460 kts 24°
2026-05-07 20:30 23.44253 119.75801 38816 ft 459 kts 24°
2026-05-07 20:30 23.47021 119.77549 38068 ft 464 kts 25°
2026-05-07 20:30 23.49800 119.79388 37294 ft 470 kts 26°
2026-05-07 20:31 23.52567 119.81286 36661 ft 471 kts 27°
2026-05-07 20:31 23.55336 119.83198 36021 ft 472 kts 27°
2026-05-07 20:31 23.58113 119.85114 35333 ft 474 kts 27°
2026-05-07 20:31 23.60906 119.87040 34609 ft 477 kts 28°
2026-05-07 20:32 23.63728 119.88985 33845 ft 481 kts 28°
2026-05-07 20:32 23.66545 119.90927 32998 ft 485 kts 28°
2026-05-07 20:32 23.69401 119.92898 32186 ft 487 kts 28°
2026-05-07 20:32 23.72272 119.94880 31526 ft 487 kts 28°
2026-05-07 20:33 23.75131 119.96857 30987 ft 483 kts 28°
2026-05-07 20:33 23.77964 119.98815 30417 ft 481 kts 28°
2026-05-07 20:33 23.80784 120.00765 29819 ft 479 kts 28°
2026-05-07 20:33 23.83597 120.02710 29187 ft 476 kts 28°
2026-05-07 20:34 23.86387 120.04641 28588 ft 473 kts 28°
2026-05-07 20:34 23.89155 120.06557 28007 ft 469 kts 28°
2026-05-07 20:34 23.91904 120.08462 27434 ft 466 kts 28°
2026-05-07 20:34 23.94639 120.10357 26875 ft 463 kts 28°
2026-05-07 20:35 23.97312 120.12210 26273 ft 461 kts 28°
2026-05-07 20:35 24.00018 120.14086 25679 ft 459 kts 28°
2026-05-07 20:35 24.02704 120.15951 25111 ft 456 kts 28°
2026-05-07 20:35 24.05377 120.17807 24523 ft 454 kts 28°
2026-05-07 20:36 24.08050 120.19664 23925 ft 453 kts 29°
2026-05-07 20:36 24.10706 120.21509 23332 ft 450 kts 29°
2026-05-07 20:36 24.13343 120.23343 22662 ft 448 kts 29°
2026-05-07 20:36 24.15969 120.25171 22072 ft 444 kts 29°
2026-05-07 20:37 24.18559 120.26974 21510 ft 439 kts 29°
2026-05-07 20:37 24.21124 120.28761 20942 ft 435 kts 29°
2026-05-07 20:37 24.23676 120.30539 20362 ft 432 kts 29°
2026-05-07 20:37 24.26201 120.32300 19826 ft 428 kts 29°
2026-05-07 20:38 24.28672 120.34023 19272 ft 425 kts 29°
2026-05-07 20:38 24.31153 120.35754 18716 ft 422 kts 29°
2026-05-07 20:38 24.33631 120.37485 18146 ft 419 kts 29°
2026-05-07 20:38 24.36079 120.39195 17531 ft 416 kts 29°
2026-05-07 20:39 24.38510 120.40893 16966 ft 411 kts 29°
2026-05-07 20:39 24.40913 120.42574 16416 ft 406 kts 30°
2026-05-07 20:39 24.43289 120.44236 15869 ft 402 kts 30°
2026-05-07 20:39 24.45614 120.45863 15312 ft 399 kts 30°
2026-05-07 20:40 24.47947 120.47496 14753 ft 395 kts 30°
2026-05-07 20:40 24.50258 120.49114 14221 ft 391 kts 30°
2026-05-07 20:40 24.52544 120.50717 13661 ft 388 kts 30°
2026-05-07 20:40 24.54809 120.52304 13080 ft 385 kts 30°
2026-05-07 20:41 24.57049 120.53875 12556 ft 379 kts 30°
2026-05-07 20:41 24.59260 120.55426 12043 ft 374 kts 31°
2026-05-07 20:41 24.61441 120.56958 11546 ft 369 kts 31°
2026-05-07 20:41 24.63590 120.58467 11043 ft 364 kts 31°
2026-05-07 20:42 24.65686 120.59941 10884 ft 350 kts 31°
2026-05-07 20:42 24.67645 120.61435 10775 ft 335 kts 37°
2026-05-07 20:42 24.69389 120.63065 10632 ft 323 kts 40°
2026-05-07 20:42 24.71020 120.64666 10437 ft 314 kts 40°
2026-05-07 20:43 24.72645 120.66270 10018 ft 314 kts 40°
2026-05-07 20:43 24.74267 120.67870 9652 ft 311 kts 41°
2026-05-07 20:43 24.75877 120.69458 9238 ft 309 kts 41°
2026-05-07 20:43 24.77477 120.71033 8853 ft 307 kts 41°
2026-05-07 20:44 24.79068 120.72599 8448 ft 305 kts 41°
2026-05-07 20:44 24.80649 120.74156 8062 ft 304 kts 41°
2026-05-07 20:44 24.82214 120.75698 7780 ft 299 kts 41°
2026-05-07 20:44 24.83755 120.77216 7520 ft 296 kts 41°
2026-05-07 20:45 24.85283 120.78721 7280 ft 295 kts 41°
2026-05-07 20:45 24.86812 120.80228 6984 ft 295 kts 41°
2026-05-07 20:45 24.88339 120.81734 6633 ft 293 kts 41°
2026-05-07 20:45 24.89853 120.83228 6300 ft 291 kts 41°
2026-05-07 20:46 24.91173 120.84853 6044 ft 287 kts 59°
2026-05-07 20:46 24.91790 120.86897 5793 ft 279 kts 86°
2026-05-07 20:46 24.91800 120.88985 5661 ft 267 kts 94°
2026-05-07 20:46 24.91698 120.90987 5573 ft 255 kts 95°
2026-05-07 20:47 24.91591 120.92898 5509 ft 244 kts 95°
2026-05-07 20:47 24.91493 120.94724 5465 ft 234 kts 95°
2026-05-07 20:47 24.91401 120.96504 5378 ft 232 kts 95°
2026-05-07 20:47 24.91312 120.98282 5225 ft 232 kts 95°
2026-05-07 20:48 24.91327 121.00052 5012 ft 233 kts 78°
2026-05-07 20:48 24.91871 121.01720 4807 ft 233 kts 63°
2026-05-07 20:48 24.92760 121.03188 4543 ft 233 kts 51°
2026-05-07 20:48 24.93824 121.04539 4198 ft 233 kts 49°
2026-05-07 20:49 24.94896 121.05876 3838 ft 233 kts 49°
2026-05-07 20:49 24.95953 121.07212 3467 ft 226 kts 49°
2026-05-07 20:49 24.96964 121.08514 3107 ft 219 kts 50°
2026-05-07 20:49 24.97932 121.09766 2815 ft 210 kts 49°
2026-05-07 20:50 24.98874 121.10953 2557 ft 202 kts 48°
2026-05-07 20:50 24.99788 121.12105 2296 ft 197 kts 48°
2026-05-07 20:50 25.00677 121.13231 2044 ft 193 kts 48°
2026-05-07 20:50 25.01546 121.14332 1794 ft 185 kts 48°
2026-05-07 20:51 25.02362 121.15367 1556 ft 172 kts 47°
2026-05-07 20:51 25.03114 121.16320 1342 ft 157 kts 48°
2026-05-07 20:51 25.03794 121.17183 1144 ft 144 kts 48°
2026-05-07 20:51 25.04427 121.17984 984 ft 134 kts 48°
2026-05-07 20:52 25.05037 121.18757 817 ft 133 kts 48°
2026-05-07 20:52 25.05646 121.19531 666 ft 134 kts 48°
2026-05-07 20:52 25.06261 121.20303 478 ft 133 kts 46°
2026-05-07 20:52 25.06876 121.21060 282 ft 131 kts 48°
2026-05-07 20:53 25.07467 121.21823 118 ft 129 kts 48°
2026-05-07 20:53 25.08009 121.22509 106 ft 104 kts 50°
2026-05-07 20:53 25.08424 121.23041 104 ft 80 kts 49°
2026-05-07 20:53 25.08659 121.23355 105 ft 31 kts 60°
2026-05-07 20:54 25.08704 121.23484 105 ft 21 kts 73°
2026-05-07 20:54 25.08741 121.23697 106 ft 22 kts 80°
2026-05-07 20:54 25.08699 121.23848 106 ft 22 kts 136°
2026-05-07 20:54 25.08581 121.23961 105 ft 24 kts 139°
2026-05-07 20:55 25.08453 121.24083 106 ft 25 kts 139°
2026-05-07 20:55 25.08350 121.24180 107 ft 16 kts 140°
2026-05-07 20:55 25.08262 121.24262 105 ft 17 kts 140°
2026-05-07 20:55 25.08197 121.24323 106 ft 19 kts 140°
2026-05-07 20:56 25.08152 121.24331 104 ft 5 kts 208°
2026-05-07 20:56 25.08123 121.24303 107 ft 7 kts 226°
2026-05-07 20:56 25.08089 121.24258 106 ft 9 kts 231°
2026-05-07 20:56 25.08045 121.24203 106 ft 11 kts 228°
2026-05-07 20:57 25.07990 121.24135 106 ft 13 kts 228°
2026-05-07 20:57 25.07925 121.24054 107 ft 15 kts 228°
2026-05-07 20:57 25.07904 121.24003 106 ft 5 kts 273°
2026-05-07 20:57 25.07919 121.23966 107 ft 6 kts 307°
2026-05-07 20:58 25.07950 121.23935 107 ft 4 kts 319°
2026-05-07 20:58 25.07970 121.23917 106 ft 4 kts 319°
2026-05-07 20:58 25.07979 121.23908 106 ft 1 kts 319°
2026-05-07 20:58 25.07985 121.23902 105 ft 0 kts 319°